THOR ABLESTAR DEB, 1942

Orbit data source: Space-Track

THOR ABLESTAR DEB, 1942 is space debris in LEO originally from a launch on Thu, 29 Jun 1961 UTC launched from the Air Force Eastern Test Range (AFETR). Debris objects in space refer to the collection of defunct objects orbiting the Earth. Examples of debris include non-operational satellites, rocket bodies, and fragments generated from explosions, collisions, or faulty payload assembly.

Loading next visibility...
Identifier
1942, 1961-015HS
Orbit
LEO
Country
Flag of USUS
Related business
Manufacturer
Unknown
Mission
Spacecraft
Bus & Motor
Unknown
Mass
Unknown
Launch date (UTC)
1961-06-29 (64 years ago)
Launch vehicle
Unknown
Launch site
Air Force Eastern Test Range (AFETR)
Object type
Payload
Rocket body
Debris
Shape & HBR
Unknown shape, 0.1 m
Radar Cross Section
Small (<0.1 m²)

Expand to show TLE details & history
Last TLE update: 6 hours ago

TLE from 6 hours ago
0 THOR ABLESTAR DEB
1 01942U 61015HS  25291.97606296  .00000571  00000-0  13043-2 0  9999
2 01942  67.2691 146.5983 0335460  56.0700  58.7123 13.13136393 85141
Epoch: 2025-10-18T23:25Z
TLE epoch observation values (Epoch: 2025-10-18T23:25:31.839Z)
Latitude
54.53563°
Longitude
-88.29264°
Altitude
1,093.408 km
Speed
7.372 km/s
True Right ascension
19h 23m 09s
True Declination
54° 22' 49"
Sunlit
Object was in daylight at epoch
Visualization orbit readout
Latitude
Unknown
Longitude
Unknown
Altitude
Unknown
Speed
Unknown
Apparent Right ascension
Unknown
Apparent Declination
Unknown
Sunlit
N/A
Visualization observer readout
Local Sidereal Time
23:48:11
Azimuth
Unknown
Elevation
Unknown
Doppler factor
Unknown
Orbital elements
Apogee altitude
1,463.984 km
Perigee altitude
954.918 km
Semi-major axis
7,587.588 km
Eccentricity
0.03355
Inclination
67.2691°
RAAN
146.5983°
Arg. of periapsis
56.07°
True anomaly
62.06848°
Mean anomaly
58.7123°
Eccentric anomaly
60.38323°
Mean motion
3.28388 °/min
Orbital period
109.63 mins
BSTAR
0.0013043

Documentation

Showing up to 5 results
|